Karlovy Vary, Czech Republic

10:18 PM CEST on September 26, 2017 (GMT +0200)
Karlovy Vary

Weather History for LKKV - November, 2012

Change the Weather History Date:

Saturday, November 17, 2012

  Actual Average (EDQM) Record (EDQM)
Temperature  
Mean Temperature 32 °F -  
Max Temperature 35 °F 37 °F 55 °F (2006)
Min Temperature 30 °F 31 °F 24 °F (1998)
Degree Days  
Heating Degree Days 32    
Moisture  
Dew Point 32 °F    
Average Humidity 95    
Maximum Humidity 100    
Minimum Humidity 87    
Precipitation  
Precipitation 0.00 in - - ()
Sea Level Pressure  
Sea Level Pressure 29.95 in    
Wind  
Wind Speed 3 mph ()    
Max Wind Speed 6 mph    
Max Gust Speed -    
Visibility 2.6 miles    
Events      
Averages and records for this station are not official NWS values.
T = Trace of Precipitation, MM = Missing Value Source: Averaged Metar Reports

Daily Weather History Graph

Daily Weather History Graph

Search for Another Location

Airport or City:

Trip Planner

Search our weather history database for the weather conditions in past years. The results will help you decide how hot, cold, wet, or windy it might be!

Date:

Astronomy

Nov. 17, 2012 Rise Set
Actual Time 7:25 AM CET 4:20 PM CET
Civil Twilight 6:49 AM CET 4:56 PM CET
Nautical Twilight 6:09 AM CET 5:36 PM CET
Astronomical Twilight 5:31 AM CET 6:14 PM CET
Moon 10:58 AM CET (11/17) 8:10 PM CET (11/17)
Length of Visible Light 10h 07m
Length of Day
8h 55m
Waxing Crescent, 18% of the Moon is Illuminated
Nov 17
Waxing Crescent
Nov 20
First Quarter
Nov 28
Full
Dec 6
Last Quarter
Dec 13
New

Hourly Weather History & Observations

Time (CET) Temp. Windchill Dew Point Humidity Pressure Visibility Wind Dir Wind Speed Gust Speed Precip Events Conditions
12:00 AM 32.0 °F 27.5 °F 32.0 °F 100% 30.04 in 0.9 mi ESE 4.6 mph - N/A   Overcast
1:00 AM 32.0 °F 27.5 °F 32.0 °F 100% 30.04 in 0.9 mi ESE 4.6 mph - N/A   Overcast
2:00 AM 33.8 °F - 32.0 °F 93% 30.01 in 0.9 mi Variable 2.3 mph - N/A   Overcast
3:00 AM 33.8 °F - 32.0 °F 93% 30.01 in 0.9 mi Variable 2.3 mph - N/A   Overcast
4:00 AM 33.8 °F 30.8 °F 32.0 °F 93% 29.98 in 1.6 mi ESE 3.5 mph - N/A   Overcast
5:00 AM 33.8 °F 29.6 °F 33.8 °F 100% 29.98 in 1.9 mi ESE 4.6 mph - N/A   Overcast
6:00 AM 33.8 °F 29.6 °F 33.8 °F 100% 29.98 in 1.6 mi ESE 4.6 mph - N/A   Overcast
7:00 AM 33.8 °F 30.8 °F 33.8 °F 100% 29.98 in 1.9 mi ESE 3.5 mph - N/A   Overcast
7:30 AM 33.8 °F - 33.8 °F 100% 29.98 in 0.9 mi Variable 2.3 mph - N/A   Overcast
8:00 AM 33.8 °F 30.8 °F 33.8 °F 100% 29.98 in 0.9 mi ESE 3.5 mph - N/A   Overcast
8:30 AM 33.8 °F 30.8 °F 33.8 °F 100% 29.98 in 1.4 mi ESE 3.5 mph - N/A   Overcast
9:00 AM 33.8 °F 30.8 °F 33.8 °F 100% 29.98 in 1.5 mi SE 3.5 mph - N/A   Overcast
9:30 AM 33.8 °F 30.8 °F 33.8 °F 100% 29.98 in 1.6 mi SE 3.5 mph - N/A   Overcast
10:00 AM 33.8 °F 30.8 °F 33.8 °F 100% 29.98 in 1.7 mi SE 3.5 mph - N/A   Overcast
10:30 AM 33.8 °F 29.6 °F 33.8 °F 100% 29.98 in - ESE 4.6 mph - N/A   Overcast
11:00 AM 33.8 °F 28.6 °F 33.8 °F 100% 29.95 in - ESE 5.8 mph - N/A   Overcast
11:30 AM 35.6 °F 32.8 °F 33.8 °F 93% 29.95 in 2.5 mi ESE 3.5 mph - N/A   Overcast
12:00 PM 35.6 °F 31.7 °F 33.8 °F 93% 29.95 in 2.8 mi ESE 4.6 mph - N/A   Overcast
12:30 PM 35.6 °F 32.8 °F 33.8 °F 93% 29.95 in 2.8 mi SE 3.5 mph - N/A   Overcast
1:00 PM 35.6 °F 31.7 °F 33.8 °F 93% 29.95 in 3.1 mi SE 4.6 mph - N/A   Overcast
1:30 PM 35.6 °F 32.8 °F 33.8 °F 93% 29.92 in 3.1 mi SE 3.5 mph - N/A   Overcast
2:00 PM 35.6 °F 32.8 °F 33.8 °F 93% 29.92 in 3.1 mi SSE 3.5 mph - N/A   Overcast
2:30 PM 35.6 °F - 32.0 °F 87% 29.92 in 3.7 mi Variable 2.3 mph - N/A   Overcast
3:00 PM 35.6 °F 32.8 °F 32.0 °F 87% 29.92 in 3.7 mi SSE 3.5 mph - N/A   Overcast
3:30 PM 35.6 °F - 33.8 °F 93% 29.92 in - Variable 2.3 mph - N/A   Mostly Cloudy
4:00 PM 35.6 °F - 32.0 °F 87% 29.92 in 3.1 mi Variable 2.3 mph - N/A   Mostly Cloudy
4:30 PM 33.8 °F 30.8 °F 32.0 °F 93% 29.92 in 3.1 mi SSE 3.5 mph - N/A   Mostly Cloudy
5:00 PM 33.8 °F 30.8 °F 32.0 °F 93% 29.92 in 4.3 mi SE 3.5 mph - N/A   Overcast
5:30 PM 33.8 °F - 30.2 °F 87% 29.89 in 3.1 mi Variable 2.3 mph - N/A   Overcast
6:00 PM 32.0 °F 28.7 °F 30.2 °F 93% 29.89 in 3.7 mi South 3.5 mph - N/A   Overcast
6:30 PM 32.0 °F - 30.2 °F 93% 29.89 in 3.7 mi Variable 2.3 mph - N/A   Overcast
7:00 PM 32.0 °F 28.7 °F 30.2 °F 93% 29.89 in 3.7 mi SE 3.5 mph - N/A   Overcast
7:30 PM 32.0 °F - 30.2 °F 93% 29.89 in 4.3 mi Variable 2.3 mph - N/A   Overcast
8:00 PM 32.0 °F - 30.2 °F 93% 29.89 in 5.0 mi Variable 2.3 mph - N/A   Overcast
9:00 PM 30.2 °F 26.7 °F 30.2 °F 100% 29.92 in 4.3 mi South 3.5 mph - N/A   Overcast
10:00 PM 30.2 °F - 30.2 °F 100% 29.89 in 3.7 mi Variable 2.3 mph - N/A   Overcast
11:00 PM 30.2 °F 26.7 °F 28.4 °F 93% 29.89 in 4.3 mi SW 3.5 mph - N/A   Overcast